Location: South Range
(44.4886°N, 65.7879°W)
Time: 16:01:35
(UTC-03:00)

Iridium 56 - Visible Passes

Search period start: 04 July 2015 00:00
Search period end: 14 July 2015 00:00
Orbit: 776 x 779 km, 86.4° (Epoch: 04 July)

Date Brightness Start Highest point End Pass type
(mag) Time Alt. Az. Time Alt. Az. Time Alt. Az.
04 Jul 6.0 01:36:59 41° SE 01:38:17 52° E 01:43:21 10° NNE visible
04 Jul 7.2 03:17:27 17° WSW 03:19:25 20° WNW 03:23:12 10° NNW visible
05 Jul 6.8 01:03:35 26° ESE 01:04:55 29° E 01:09:24 10° NNE visible
05 Jul 6.5 02:44:03 29° WSW 02:45:34 35° W 02:50:20 10° NNW visible
06 Jul 7.4 00:30:11 15° E 00:31:38 17° E 00:34:58 10° NE visible
06 Jul 5.7 02:10:39 48° SW 02:11:54 63° W 02:17:05 10° N visible
07 Jul 5.5 01:37:15 55° SSE 01:38:20 74° E 01:43:34 10° N visible
07 Jul 7.5 03:17:43 12° W 03:19:48 15° WNW 03:22:32 10° NW visible
08 Jul 6.2 01:03:50 36° ESE 01:04:54 41° E 01:09:48 10° NNE visible
08 Jul 6.9 02:44:18 22° WSW 02:45:51 25° WNW 02:50:05 10° NNW visible
09 Jul 7.0 00:30:24 21° E 00:31:34 23° E 00:35:42 10° NNE visible
09 Jul 6.1 02:10:52 38° WSW 02:12:04 44° W 02:17:03 10° N visible
09 Jul 7.6 23:56:58 12° E 23:58:20 13° ENE 00:00:51 10° NE visible
10 Jul 5.5 01:37:27 59° SSW 01:38:26 79° W 01:43:41 10° N visible
11 Jul 5.7 01:04:00 50° SE 01:04:56 58° E 01:10:05 10° N visible
11 Jul 7.3 02:44:29 16° W 02:46:11 18° WNW 02:49:39 10° NNW visible
12 Jul 6.5 00:30:34 30° ESE 00:31:32 33° E 00:36:11 10° NNE visible
12 Jul 6.6 02:11:02 28° WSW 02:12:18 31° WNW 02:16:54 10° NNW visible
12 Jul 7.2 23:57:07 17° E 23:58:14 19° E 00:01:53 10° NE visible
13 Jul 5.8 01:37:35 48° WSW 01:38:34 55° W 01:43:42 10° N visible
13 Jul 7.8 23:24:31 10° E 23:25:02 10° ENE 23:25:54 10° ENE visible
